Flag for Brunei Weather past 2 weeks in Bandar Seri Begawan, Brunei

Now
86 °F

Partly sunny.


Feels Like: 95 °F
Forecast: 78 / 89 °F
Wind: 7 mph from Northwest

Location: Brunei Airport

Current Time: Sep 2, 2014 at 6:39:38 PM

Latest Report: Sep 2, 2014 at 6:00 PM


Visibility: N/A

Pressure: 29.80 "Hg

Humidity: 70%

Dew point: 75 °F

Location of Bandar Seri BegawanLocation

Historic Weather in Bandar Seri Begawan — Graph

°F

Bandar Seri Begawan temperature yesterday

Maximum temperature yesterday: 90 °F (at 11:00 AM)
Minimum temperature yesterday: 77 °F (at 3:30 AM)
Average temperature yesterday: 83 °F

Past Weeks' High & Low Weather Summary

 TemperatureHumidityPressure
High91 °F (Sep 2, 11:30 AM)100% (Aug 19, 5:00 AM)29.95 "Hg (Aug 19, 5:00 AM)
Low73 °F (Aug 29, 10:30 PM)55% (Aug 31, 1:30 PM)29.71 "Hg (Aug 24, 4:30 PM)
Average81 °F83%29.83 "Hg
* Reported Aug 18 5:00 PM — Sep 2 5:30 PM, Bandar Seri Begawan, Weather by CustomWeather, © 2014

Note: Actual official high and low records may vary slightly from our data, if they occured in-between our weather recording intervals... More about our weather records

Advertising

Bandar Seri Begawan weather history for previous 24 hours

 ConditionsComfort  
Time TempWeatherWind HumidityBarometerVisibility
5:30 PM
Sep 2
86 °FPartly sunny.7 mph70%29.80 "HgN/A
5:00 PM88 °FBroken clouds.12 mph66%29.80 "HgN/A
4:30 PM88 °FPartly sunny.9 mph70%29.80 "HgN/A
4:00 PM88 °FPartly sunny.13 mph70%29.80 "HgN/A
3:30 PM90 °FPartly sunny.12 mph67%29.77 "HgN/A
3:00 PM90 °FPartly sunny.10 mph67%29.80 "HgN/A
2:30 PM91 °FBroken clouds.12 mph59%29.80 "HgN/A
2:00 PM90 °FBroken clouds.9 mph63%29.80 "HgN/A
1:30 PM91 °FBroken clouds.9 mph59%29.83 "HgN/A
1:00 PM91 °FBroken clouds.7 mph56%29.83 "HgN/A
12:30 PM90 °FBroken clouds.8 mph59%29.83 "HgN/A
12:00 PM91 °FBroken clouds.7 mph59%29.86 "HgN/A
11:30 AM91 °FBroken clouds.7 mph59%29.86 "HgN/A
10:30 AM88 °FPartly sunny.6 mph66%29.86 "HgN/A
10:00 AM88 °FPartly sunny.6 mph66%29.86 "HgN/A
9:30 AM86 °FPartly sunny.5 mph75%29.86 "HgN/A
9:00 AM84 °FPartly sunny.5 mph79%29.86 "HgN/A
8:30 AM84 °FPartly sunny.6 mph79%29.86 "HgN/A
8:00 AM82 °FPartly sunny.6 mph84%29.83 "HgN/A
7:30 AM81 °FPartly sunny.5 mph89%29.83 "HgN/A
7:00 AM79 °FPartly sunny.5 mph94%29.83 "HgN/A
6:30 AM79 °FPartly sunny.3 mph94%29.80 "HgN/A
6:00 AM81 °FPassing clouds.5 mph89%29.80 "HgN/A
5:30 AM81 °FPassing clouds.3 mph89%29.83 "HgN/A
4:30 AM79 °FPartly cloudy.3 mph94%29.83 "HgN/A
4:00 AM81 °FPartly cloudy.5 mph89%29.83 "HgN/A
3:30 AM81 °FPartly cloudy.3 mph89%29.83 "HgN/A
3:00 AM81 °FPartly cloudy.5 mph89%29.83 "HgN/A
2:30 AM81 °FPartly cloudy.2 mph89%29.83 "HgN/A
2:00 AM82 °FPassing clouds.2 mph84%29.83 "HgN/A
1:30 AM81 °FPassing clouds.2 mph89%29.83 "HgN/A
1:00 AM81 °FPassing clouds.3 mph89%29.83 "HgN/A
12:30 AM81 °FPassing clouds.2 mph89%29.86 "HgN/A
12:00 AM81 °FPassing clouds.2 mph89%29.86 "HgN/A
11:30 PM
Sep 1
81 °FPassing clouds.1 mph89%29.86 "HgN/A
11:00 PM81 °FPassing clouds.2 mph89%29.86 "HgN/A
10:30 PM82 °FPassing clouds.2 mph79%29.86 "HgN/A
10:00 PM82 °FPassing clouds.3 mph79%29.86 "HgN/A
9:30 PM82 °FPassing clouds.3 mph79%29.86 "HgN/A
9:00 PM82 °FPassing clouds.3 mph79%29.86 "HgN/A
8:30 PM84 °FPassing clouds.5 mph74%29.83 "HgN/A
8:00 PM84 °FPassing clouds.5 mph74%29.83 "HgN/A
7:30 PM84 °FPassing clouds.2 mph74%29.80 "HgN/A
7:00 PM84 °FPassing clouds.5 mph74%29.80 "HgN/A
6:30 PM86 °FPassing clouds.3 mph70%29.80 "HgN/A
6:00 PM86 °FPartly sunny.5 mph70%29.77 "HgN/A
Weather by CustomWeather, © 2014

See weather overviewHow to use our weather pages